Location: Unspecified
(38.8767°N, 0.0000°E)
Time: 04:51:26
(UTC+00:00)

RS-15 - Visible Passes

Search period start: 04 April 2026 00:00
Search period end: 14 April 2026 00:00
Orbit: 1893 x 2151 km, 64.8° (Epoch: 29 March)

Date Brightness Start Highest point End Pass type
(mag) Time Alt. Az. Time Alt. Az. Time Alt. Az.
4 Apr 7.9 02:03:53 10° NW 02:15:31 76° WSW 02:17:45 63° S visible
4 Apr 9.1 04:19:43 10° WNW 04:36:31 - SW 04:25:17 16° W visible
4 Apr 9.6 18:40:21 10° W 18:49:46 32° NW 18:59:30 10° NNE visible
4 Apr 9.9 21:00:34 10° NW 21:07:24 17° N 21:14:25 10° NE visible
4 Apr 9.3 23:15:33 10° NNW 23:25:18 30° NE 23:33:35 15° E visible
5 Apr 7.9 01:27:47 10° NNW 01:39:30 87° ENE 01:41:11 72° SE visible
5 Apr 8.9 03:42:03 10° NW 03:48:49 23° W 03:48:49 23° W visible
5 Apr 9.9 20:23:05 10° NW 20:30:06 18° N 20:37:17 10° NNE visible
5 Apr 9.5 22:39:24 10° NNW 22:48:25 25° NNE 22:57:34 10° E visible
6 Apr 8.1 00:51:43 10° NNW 01:03:22 71° NE 01:05:13 63° ESE visible
6 Apr 8.7 03:05:06 10° NW 03:12:53 31° W 03:12:53 31° W visible
6 Apr 9.9 19:45:25 10° WNW 19:52:51 19° NNW 20:00:30 10° NNE visible
6 Apr 9.6 22:03:07 10° NNW 22:11:22 22° NNE 22:19:51 10° ENE visible
7 Apr 8.4 00:15:41 10° NNW 00:27:06 57° NE 00:29:32 51° E visible
7 Apr 8.4 02:28:31 10° NW 02:37:13 41° W 02:37:13 41° W visible
7 Apr 9.8 19:07:41 10° WNW 19:15:43 22° NNW 19:24:00 10° NNE visible
7 Apr 9.7 21:26:37 10° NNW 21:34:12 19° NNE 21:41:58 10° ENE visible
7 Apr 8.7 23:39:40 10° NNW 23:50:42 46° NE 23:54:02 39° E visible
8 Apr 8.2 01:52:09 10° NW 02:01:43 54° W 02:01:43 54° W visible
8 Apr 9.8 20:49:51 10° NNW 20:56:56 18° N 21:04:10 10° NE visible
8 Apr 8.9 23:03:39 10° NNW 23:14:09 38° NE 23:18:39 29° E visible
9 Apr 8.0 01:15:56 10° NW 01:26:20 69° WNW 01:26:20 69° WNW visible
9 Apr 9.4 03:32:05 10° WNW 03:34:02 13° WNW 03:34:02 13° WNW visible
9 Apr 9.8 20:12:45 10° NW 20:19:37 17° N 20:26:39 10° NE visible
9 Apr 9.2 22:27:35 10° NNW 22:37:26 31° NE 22:43:21 21° ENE visible
10 Apr 7.9 00:39:48 10° NNW 00:51:03 85° NNW 00:51:03 85° NNW visible
10 Apr 9.2 02:54:14 10° NW 02:58:46 19° WNW 02:58:46 19° WNW visible
10 Apr 9.8 19:35:19 10° NW 19:42:18 18° N 19:49:27 10° NNE visible
10 Apr 9.4 21:51:26 10° NNW 22:00:34 26° NNE 22:08:08 14° ENE visible
11 Apr 8.0 00:03:43 10° NNW 00:15:25 73° NE 00:15:50 73° ENE visible
11 Apr 8.9 02:17:13 10° NW 02:23:33 27° WNW 02:23:33 27° WNW visible
11 Apr 9.8 18:57:40 10° WNW 19:05:02 19° NNW 19:12:38 10° NNE visible
11 Apr 9.5 21:15:10 10° NNW 21:23:33 22° NNE 21:32:09 10° ENE visible
11 Apr 8.3 23:27:42 10° NNW 23:39:10 59° NE 23:40:42 56° ENE visible
12 Apr 8.6 01:40:36 10° NW 01:48:24 37° W 01:48:24 37° W visible
12 Apr 9.7 20:38:43 10° NNW 20:46:23 20° NNE 20:54:16 10° ENE visible
12 Apr 8.6 22:51:41 10° NNW 23:02:47 48° NE 23:05:35 42° E visible
13 Apr 8.3 01:04:12 10° NW 01:13:18 50° W 01:13:18 50° W visible
13 Apr 9.7 20:01:59 10° NNW 20:09:08 18° N 20:16:28 10° NE visible
13 Apr 8.8 22:15:40 10° NNW 22:26:15 39° NE 22:30:32 31° E visible
